Regional Weather Roundup
Issued by NWS Sterling, VA

Home | Current Version | Previous Version | Graphics & Text | Print | Product List | Glossary On
Versions: 1 2 3 4 5 6 7 8 9 10 11 12 13 14 15 16 17 18 19 20 21 22 23 24 25 26 27
000
ASUS41 KLWX 221710
RWRLWX

REGIONAL WEATHER ROUNDUP
NATIONAL WEATHER SERVICE BALTIMORE MD/WASHINGTON DC
100 PM EDT TUE APR 22 2014

Note: "FAIR" indicates few or no clouds below 12,000 feet
with no significant weather and/or obstructions to visibility.
 TC=TEMPERATURE CELSIUS

 * =Non NWS site. Station does not report precipitation (e.g. rain,
    snow, etc.), thunder, or fog.

DCZ001-MDZ009-015-VAZ040>042-051-053>054-221800-
WASHINGTON METRO

CITY           SKY/WX    TMP DP  RH WIND       PRES   REMARKS
WASHINGTON NAT CLOUDY    70  49  47 S7        29.66F
DULLES         LGT RAIN  66  48  52 W7        29.68F
ANDREWS AFB    MOSUNNY   75  47  35 W9        29.66F
FT BELVOIR     PTSUNNY   71  46  40 S3        29.67F
QUANTICO       CLOUDY    67  51  56 S6        29.67F
COLLEGE PARK*  MOSUNNY   72  46  40 W3        29.65F
LEESBURG*      LGT RAIN  64  57  77 W5        29.69S
MANASSAS*      CLOUDY    64  54  68 W3        29.69R
GAITHERSBURG*  CLOUDY    66  48  52 W10       29.69F

$$

MDZ006>007-011-014-221800-
BALTIMORE METRO

CITY           SKY/WX    TMP DP  RH WIND       PRES   REMARKS
BWI AIRPORT    PTSUNNY   74  46  36 SW7       29.63F
MD SCIENCE CTR   N/A     68  50  52 MISG      29.65F
MARTIN STATE   MOSUNNY   64  54  68 SE10      29.67F
ANNAPOLIS      SUNNY     61  51  70 SE10      29.65F
FORT MEADE*    MOSUNNY   73  45  35 SW5       29.67F

$$

MDZ012-015-019>023-221800-
MARYLAND EASTERN SHORE

CITY           SKY/WX    TMP DP  RH WIND       PRES   REMARKS
OCEAN CITY     SUNNY     58  49  72 S12G18    29.68F
SALISBURY      SUNNY     77  39  25 S18       29.65F
BAY BRIDGE AP* SUNNY     66  45  45 SE9       29.66F
EASTON*        MOSUNNY   73  48  40 SW10      29.69F

$$

MDZ017>025-221800-
SOUTHERN MARYLAND

CITY           SKY/WX    TMP DP  RH WIND       PRES   REMARKS
PATUXENT RIVER PTSUNNY   67  52  58 SE8       29.66F
ST INIGOES     MOSUNNY   74  48  39 SW10      29.65F
LEONARDTOWN*   MOSUNNY   72  43  35 W10G16    29.68S

$$

MDZ003>005-221800-
NORTH CENTRAL MARYLAND

CITY           SKY/WX    TMP DP  RH WIND       PRES   REMARKS
FREDERICK*     PTSUNNY   64  57  77 VRB5      29.69F
HAGERSTOWN APT LGT RAIN  60  51  72 CALM      29.67F
WESTMINSTER*   LGT RAIN  64  54  68 W7        29.68S

$$

MDZ501>502-221800-
WESTERN MARYLAND

CITY           SKY/WX    TMP DP  RH WIND       PRES   REMARKS
OAKLAND*       FOG       50 N/A N/A W15       29.72F VSB 1/2
CUMBERLAND*    CLOUDY    64  54  68 SW6       29.72F

$$

VAZ025>031-221800-
SHENANDOAH VALLEY

CITY           SKY/WX    TMP DP  RH WIND       PRES   REMARKS
WINCHESTER*    LGT RAIN  63  52  67 W6        29.68F
STAUNTON*      CLOUDY    68  47  47 SW8       29.72F

$$

WVZ021-048>050-054>055-221800-
EASTERN WEST VIRGINIA PANHANDLE

CITY           SKY/WX    TMP DP  RH WIND       PRES   REMARKS
MARTINSBURG    LGT RAIN  65  52  62 SW5       29.67F
PETERSBURG*    CLOUDY    70  57  62 W12       29.72S

$$

VAZ036>039-050-221800-
CENTRAL FOOTHILLS

CITY           SKY/WX    TMP DP  RH WIND       PRES   REMARKS
CHARLOTTESVILL CLOUDY    71  52  50 S7        29.68F
CULPEPER*      DRIZZLE   70  50  49 N6        29.69F

$$

VAZ055>057-221800-
NORTH AND CENTRAL PIEDMONT

CITY           SKY/WX    TMP DP  RH WIND       PRES   REMARKS
FREDERICKSBRG* CLOUDY    75  46  35 W7        29.65F
STAFFORD*      CLOUDY    75  49  40 CALM      29.70F

$$

NCZ024-NYZ072-PAZ021-071-VAZ022-071-221800-
OTHER REGIONAL OBSERVATIONS

CITY           SKY/WX    TMP DP  RH WIND       PRES   REMARKS
NEW YORK CITY  PTSUNNY   67  45  45 S8G20     29.64F
PHILADELPHIA   PTSUNNY   71  44  37 SW13      29.63F
PITTSBURGH     PTSUNNY   64  57  78 W10       29.67F
ROANOKE        CLOUDY    74  48  39 W15G30    29.75F
RICHMOND       PTSUNNY   80  44  27 W9        29.68F
RALEIGH        PTSUNNY   80  53  39 SW6       29.74F

$$

ANZ530>537-221800-
MARINE OBSERVATIONS

STATION/POSITION TIME  TEMP    WIND        PRES
                       AIR SEA DIR/SP/G
                 (UTC) (F)     (DEG/KT/KT) (MB)
THOMAS PT LIGHT  1700   58 55  180/ 10/ 11 1004.7F
BALT KEY BRIDGE  1700   61      90/  7/  8 1004.1F
COVE POINT       1700   55     170/ 11/ 12 1004.3F
LEWISETTA        1700   72 57  220/  4/  5 1003.8F
SOLOMONS ISLAND  1600      55                N/A
PINEY POINT      1700          100/  5/  5   N/A

$$




USA.gov is the U.S. government's official web portal to all federal, state and local government web resources and services.